Regional Weather Roundup
Issued by NWS

Home | Current Version | Previous Version | Graphics & Text | Print | Product List | Glossary On
Versions: 1 2 3 4 5 6 7 8 9 10 11 12 13 14 15 16 17 18 19 20 21 22 23 24 25 26 27 28 29 30 31 32 33 34 35 36 37 38 39 40 41 42 43 44 45 46 47 48 49 50
000
ASUS43 KLSX 241307
RWRMO

WEATHER SUMMARY FOR MISSOURI
NATIONAL WEATHER SERVICE SPRINGFIELD MO
800 AM CDT SUN SEP 24 2017

NOTE: "FAIR" INDICATES FEW OR NO CLOUDS BELOW 12,000 FEET WITH NO
       SIGNIFICANT WEATHER AND/OR OBSTRUCTIONS TO VISIBILITY.
       CURRENT SKY AND/OR WEATHER CONDITIONS ARE NOT AVAILABLE FOR
       CHILLICOTHE AND FARMINGTON.

MOZ001>031-035>038-043-044-053-054-241400-
...NORTHERN AND WESTERN MISSOURI...

CITY           SKY/WX    TMP DP  RH WIND       PRES   REMARKS
KANSAS CTY INT PTCLDY    71  66  84 S9        29.97R
KANSAS C DTWN  CLEAR     75  66  73 CALM      29.96R
LEE`S SUMMIT   CLEAR     72  66  81 S10       29.99R
ST JOSEPH      CLEAR     71  67  87 S6        29.96R
CHILLICOTHE      N/A     70  66  87 SE3       30.01R
KIRKSVILLE     SUNNY     68  63  84 S6        30.04R

$$
MOZ066>068-077>081-088>096-101>105-241400-
...SOUTHWEST MISSOURI...

CITY           SKY/WX    TMP DP  RH WIND       PRES   REMARKS
SPRINGFIELD    SUNNY     68  65  90 SE8       30.02R
JOPLIN         CLEAR     71  67  87 SE8       29.99R
BRANSON        SUNNY     68  66  94 CALM      30.04R

$$
MOZ032>034-039>042-045>050-055>058-069>072-241400-
...CENTRAL MISSOURI...

CITY           SKY/WX    TMP DP  RH WIND       PRES   REMARKS
COLUMBIA       SUNNY     70  65  84 SE6       30.04R
JEFFERSON CITY SUNNY     67  63  87 SE6       30.03R
ROLLA          SUNNY     70  65  84 SE5       30.06R
SEDALIA        SUNNY     71  67  87 SE6       30.02S
WHITEMAN AFB   SUNNY     69  69 100 S5        29.99S
WARRENSBURG    CLEAR     68  63  83 SE3       30.00R
OSAGE BEACH    SUNNY     67  64  90 SE3       30.04R

$$
MOZ051-052-059>065-241400-
...EAST CENTRAL MISSOURI...

CITY           SKY/WX    TMP DP  RH WIND       PRES   REMARKS
ST LOUIS INTL  MOSUNNY   72  66  81 E6        30.06R
SPIRIT OF STL  SUNNY     69  67  93 CALM      30.04S
ST CHARLES     SUNNY     71  65  81 E6        30.05R

$$
MOZ072>076-082>087-097>100-106>115-241400-
...SOUTH CENTRAL AND SOUTHEAST MISSOURI...

CITY           SKY/WX    TMP DP  RH WIND       PRES   REMARKS
CAPE GIRARDEAU SUNNY     71  68  90 CALM      30.04R
FARMINGTON     SUNNY     67  64  90 CALM      30.08R
POPLAR BLUFF   SUNNY     71  68  90 CALM      30.03R
WEST PLAINS    SUNNY     68  64  87 CALM      30.07R

$$



USA.gov is the U.S. government's official web portal to all federal, state and local government web resources and services.